Tracking 22438 objects as of 25-Feb-2021
HD Live streaming from Space Station
objects crossing your sky now

COSMOS 2323 (GLONASS)

Track COSMOS 2323 (GLONASS) now!
COSMOS 2323 (GLONASS) is classified as:


NORAD ID: 23736
Int'l Code: 1995-068C
Perigee: 19,118.5 km
Apogee: 19,155.4 km
Inclination: 65.7 °
Period: 675.7 minutes
Semi major axis: 25507 km
RCS: 3.8825 m2 (large)
Launch date: December 14, 1995
Source: Commonwealth of Independent States (former USSR) (CIS)
Launch site: TYURATAM MISSILE AND SPACE COMPLEX (TTMTR)
aabbcc
Your satellite tracking list
Your tracking list is empty




NASA's NSSDC Master Catalog

Two Line Element Set (TLE):
1 23736U 95068C   21055.15599000  .00000094  00000-0  00000-0 0  9994
2 23736  65.7049 265.8418 0007224 184.9975  16.1056  2.13103035195884
Source of the keplerian elements: AFSPC